Regional Weather Roundup
Issued by NWS San Angelo, TX

Home | Current Version | Previous Version | Text Only | Print | Product List | Glossary On
Versions: 1 2 3 4 5 6 7 8 9 10 11 12 13 14 15 16 17 18 19 20 21 22 23 24 25 26 27 28 29 30 31 32 33 34 35 36 37 38 39 40 41 42 43 44 45 46 47 48 49 50
000
ASUS44 KSJT 242202
RWRSJT
WEST CENTRAL TEXAS REGIONAL WEATHER ROUNDUP
NATIONAL WEATHER SERVICE SAN ANGELO TX
500 PM CDT THU APR 24 2014

NOTE: "FAIR" INDICATES FEW OR NO CLOUDS BELOW 12,000 FEET WITH NO
SIGNIFICANT WEATHER AND/OR OBSTRUCTIONS TO VISIBILITY.

TXZ049-054-064>066-071>073-076>078-098-099-113-114-127-128-139-140-
154-155-168>170-242300
...LOCATIONS ACROSS WEST CENTRAL TEXAS...

CITY           SKY/WX    TMP DP  RH WIND       PRES   REMARKS
SAN ANGELO     SUNNY     86  27  11 N16G24    29.90F
ABILENE        SUNNY     81  32  17 N15G23    29.91S
DYESS AFB      SUNNY     81  35  18 N10G22    29.90F
JUNCTION       CLOUDY    89  27  10 N15G21    29.87S
SWEETWATER     NOT AVBL
BROWNWOOD      SUNNY     82  34  17 N16G23    29.88F
COLEMAN        NOT AVBL
SONORA         NOT AVBL
OZONA          NOT AVBL
BRADY          NOT AVBL
$$

TEXAS PANHANDLE/OKLAHOMA PANHANDLE

CITY           SKY/WX    TMP DP  RH WIND       PRES   REMARKS
AMARILLO       SUNNY     73  16  11 NW8G18    29.97F
BORGER         MOSUNNY   73  19  13 W13G18    29.95F
CANADIAN       NOT AVBL
DALHART        SUNNY     68  16  13 CALM      29.98F
DUMAS          NOT AVBL
GUYMON         NOT AVBL
HEREFORD       NOT AVBL
PAMPA          NOT AVBL
PERRYTON       NOT AVBL
$$

SOUTHERN PANHANDLE/SOUTH PLAINS/ROLLING PLAINS

CITY           SKY/WX    TMP DP  RH WIND       PRES   REMARKS
LUBBOCK        MOSUNNY   76  21  12 NW13G22   29.97F
SNYDER         NOT AVBL
CHILDRESS      SUNNY     77  30  17 N20       29.91F
SEMINOLE       NOT AVBL
$$

PERMIAN BASIN

CITY           SKY/WX    TMP DP  RH WIND       PRES   REMARKS
MIDLAND        SUNNY     80  29  15 N10       29.96F
ODESSA         SUNNY     79  25  13 MISG      29.97F
WINK           SUNNY     84  23  10 NE10      29.95F
$$

FAR WEST/SOUTHWEST MOUNTAINS/TRANS PECOS

CITY           SKY/WX    TMP DP  RH WIND       PRES   REMARKS
ALPINE         NOT AVBL
DRYDEN           N/A     95  15   5 N17       29.88F
EL PASO        MOSUNNY   79  10   7 CALM      29.99F
FORT STOCKTON  SUNNY     81  15   8 CALM      29.97F
GUADALUPE PASS SUNNY     78  14   9 SW14      30.08F
MARFA          SUNNY     79  19  11 SE5       30.06F
PECOS          CLEAR     82  28  14 CALM      29.95F
$$

DALLAS/FORT WORTH METROPLEX

CITY           SKY/WX    TMP DP  RH WIND       PRES   REMARKS
DFW AIRPORT    MOSUNNY   82  45  27 NW18G25   29.81S
FTW MEACHAM    SUNNY     82  46  28 NW16G23   29.82S
DAL-EXECUTIVE  SUNNY     83  45  26 NW17G24   29.82S
GRAND PRAIRIE  SUNNY     82  41  23 NW9G18    29.85S
ADDISON        NOT AVBL
MESQUITE       CLEAR     82  48  30 NW12G20   29.82S
LANCASTER      NOT AVBL
$$

NORTH CENTRAL TEXAS

CITY           SKY/WX    TMP DP  RH WIND       PRES   REMARKS
SHRMAN/DENISON NOT AVBL
GAINESVILLE    NOT AVBL
BRIDGEPORT     NOT AVBL
DENTON         SUNNY     79  46  31 NW15G23   29.82F
WAXAHACHIE     NOT AVBL
GRANBURY       NOT AVBL
$$

WESTERN NORTH TEXAS

CITY           SKY/WX    TMP DP  RH WIND       PRES   REMARKS
WICHITA FALLS  SUNNY     79  39  23 NW15      29.85F
VERNON         NOT AVBL
BRECKENRIDGE   NOT AVBL
COMANCHE       NOT AVBL
$$

CENTRAL AND SOUTH CENTRAL TEXAS

CITY           SKY/WX    TMP DP  RH WIND       PRES   REMARKS
AUSTIN/BERGSTM MOSUNNY   86  65  49 E7        29.80F
WACO           SUNNY     87  44  22 NW14G20   29.82S
HILLSBORO      NOT AVBL
TEMPLE         SUNNY     90  37  15 N9        29.85S
KILLEEN-GRAY   SUNNY     88  37  16 NW12      29.84S
FORT HOOD      NOT AVBL
GEORGETOWN     MOSUNNY   93  45  18 N14       29.79S HAZE
LAGO VISTA     NOT AVBL
SAN MARCOS     SUNNY     84  64  51 SE13      29.81F
NEW BRAUNFELS  SUNNY     87  63  44 E10       29.79F
RANDOLPH AFB   SUNNY     86  64  46 SE9       29.81F
SAN ANTONIO    MOSUNNY   89  63  41 SE13      29.80F
STINSON        SUNNY     89  64  43 SE10G23   29.78F
PLEASANTON     NOT AVBL
LA GRANGE      NOT AVBL
GIDDINGS       NOT AVBL
$$

EAST TEXAS

CITY           SKY/WX    TMP DP  RH WIND       PRES   REMARKS
PARIS          MOSUNNY   81  55  41 W20G28    29.78R
CLARKSVILLE    NOT AVBL
TYLER          PTSUNNY   81  64  56 SW12      29.79F
LONGVIEW       MOSUNNY   82  62  50 SW12G20   29.78F
PALESTINE      NOT AVBL
NACOGDOCHES    MOSUNNY   79  64  61 W9        29.84F
$$

TEXAS HILL COUNTRY AND EDWARDS PLATEAU

CITY           SKY/WX    TMP DP  RH WIND       PRES   REMARKS
LLANO          NOT AVBL
HORSESHOE BAY  NOT AVBL
KERRVILLE      NOT AVBL
FREDERICKSBRG  NOT AVBL
ROCKSPRINGS    NOT AVBL
HONDO          SUNNY     94  63  35 S10       29.80F
UVALDE         NOT AVBL
DEL RIO        SUNNY     97  18   6 N10G20    29.80F
$$

SOUTHEAST TEXAS

CITY           SKY/WX    TMP DP  RH WIND       PRES   REMARKS
COLLEGE STN    SUNNY     83  65  54 S8        29.81F
CALDWELL       NOT AVBL
CROCKETT       NOT AVBL
BRENHAM        NOT AVBL
HUNTSVILLE     MOSUNNY   81  67  62 VRB5      29.84F
CONROE         CLOUDY    80  66  62 SW5       29.84S
HOUSTON BUSH   CLOUDY    82  64  54 S7        29.83S
HOUSTON HOBBY  PTSUNNY   82  66  58 S12       29.83F
PERLAND        PTSUNNY   81  64  56 S8        29.86F
WHARTON        NOT AVBL
$$

THE UPPER TEXAS COAST

CITY           SKY/WX    TMP DP  RH WIND       PRES   REMARKS
ORANGE         NOT AVBL
PORT ARTHUR    PTSUNNY   77  67  71 S13       29.86F
GALVESTON      PTSUNNY   76  70  82 S12       29.87F
ANGLETON       PTSUNNY   78  67  68 S14       29.86S
BAY CITY       NOT AVBL
$$

TEXAS COASTAL BEND, RIO GRANDE PLAINS DEEP SOUTH TEXAS

CITY           SKY/WX    TMP DP  RH WIND       PRES   REMARKS
VICTORIA       MOSUNNY   84  69  60 SE14      29.82F
BEEVILLE       NOT AVBL
ROCKPORT       CLOUDY    77  70  79 S10       29.82R
PORT ARANSAS   NOT AVBL
PORT LAVACA    NOT AVBL
CORPUS CHRISTI CLOUDY    83  69  62 SE14      29.80F
KINGSVILLE NAS PTSUNNY   84  71  65 E15       29.79F
COTULLA        SUNNY     92  58  31 E10       29.79F
LAREDO         SUNNY     92  62  36 N15       29.81F
BROWNSVILLE    PTSUNNY   84  71  65 SE15      29.77S
PORT ISABEL    NOT AVBL
HEBBRONVILLE   NOT AVBL
MCALLEN        PTSUNNY   93  68  43 N7        29.74S
WESLACO        NOT AVBL
FALFURRIAS     NOT AVBL
EDINBURG       NOT AVBL
$$



USA.gov is the U.S. government's official web portal to all federal, state and local government web resources and services.